TimePST,TemperatureF,Dew PointF,Humidity,Sea Level PressureIn,VisibilityMPH,Wind Direction,Wind SpeedMPH,Gust SpeedMPH,PrecipitationIn,Events,Conditions,WindDirDegrees,DateUTC
12:06 AM,24.8,14.0,64,30.11,10.0,East,4.6,-,N/A,,Mostly Cloudy,100,2013-02-24 08:06:00
12:15 AM,24.8,15.8,69,30.11,10.0,East,4.6,-,N/A,,Mostly Cloudy,100,2013-02-24 08:15:00
12:56 AM,25.0,15.1,66,30.21,10.0,East,4.6,-,N/A,,Overcast,100,2013-02-24 08:56:00
1:07 AM,24.8,15.8,69,30.12,10.0,NE,3.5,-,N/A,,Overcast,50,2013-02-24 09:07:00
1:34 AM,24.8,15.8,69,30.12,10.0,ENE,8.1,-,N/A,,Overcast,70,2013-02-24 09:34:00
1:56 AM,25.0,15.1,66,30.21,10.0,ENE,4.6,-,N/A,,Overcast,60,2013-02-24 09:56:00
2:43 AM,24.8,15.8,69,30.12,10.0,East,5.8,-,N/A,,Overcast,90,2013-02-24 10:43:00
2:56 AM,25.0,14.0,63,30.21,10.0,Variable,5.8,-,N/A,,Overcast,0,2013-02-24 10:56:00
4:56 AM,23.0,12.9,65,30.27,10.0,Calm,Calm,-,N/A,,Overcast,0,2013-02-24 12:56:00
5:56 AM,19.9,12.0,71,30.31,10.0,South,8.1,-,N/A,,Partly Cloudy,190,2013-02-24 13:56:00
6:56 AM,21.0,12.0,68,30.32,10.0,SSW,4.6,-,N/A,,Clear,210,2013-02-24 14:56:00
7:56 AM,24.1,14.0,65,30.33,10.0,South,3.5,-,N/A,,Clear,170,2013-02-24 15:56:00
8:56 AM,27.0,12.9,56,30.33,10.0,Calm,Calm,-,N/A,,Scattered Clouds,0,2013-02-24 16:56:00
9:56 AM,28.0,14.0,56,30.34,10.0,West,10.4,-,N/A,,Clear,280,2013-02-24 17:56:00
10:56 AM,28.9,14.0,54,30.35,10.0,WNW,8.1,-,N/A,,Clear,290,2013-02-24 18:56:00
11:56 AM,28.9,14.0,54,30.35,10.0,West,5.8,-,N/A,,Partly Cloudy,280,2013-02-24 19:56:00
12:56 PM,30.9,16.0,54,30.33,10.0,WSW,5.8,-,N/A,,Scattered Clouds,250,2013-02-24 20:56:00
1:56 PM,33.1,15.1,48,30.32,10.0,WNW,6.9,-,N/A,,Partly Cloudy,300,2013-02-24 21:56:00
2:56 PM,33.1,15.1,48,30.33,10.0,WNW,8.1,16.1,N/A,,Clear,290,2013-02-24 22:56:00
3:56 PM,33.1,12.0,42,30.33,10.0,NW,5.8,-,N/A,,Clear,310,2013-02-24 23:56:00
4:56 PM,30.9,12.9,47,30.34,10.0,WNW,4.6,-,N/A,,Clear,300,2013-02-25 00:56:00
5:56 PM,26.1,15.1,63,30.37,10.0,NNW,6.9,-,N/A,,Clear,330,2013-02-25 01:56:00
6:56 PM,21.9,15.1,75,30.39,10.0,Calm,Calm,-,N/A,,Clear,0,2013-02-25 02:56:00
7:56 PM,19.9,12.9,74,30.39,10.0,Calm,Calm,-,N/A,,Clear,0,2013-02-25 03:56:00
8:56 PM,19.9,12.9,74,30.37,10.0,Calm,Calm,-,N/A,,Clear,0,2013-02-25 04:56:00
9:56 PM,17.1,12.9,84,30.38,10.0,South,3.5,-,N/A,,Clear,170,2013-02-25 05:56:00
10:56 PM,18.0,12.0,78,30.36,10.0,Calm,Calm,-,N/A,,Clear,0,2013-02-25 06:56:00
11:56 PM,15.1,10.9,84,30.37,10.0,Calm,Calm,-,N/A,,Clear,0,2013-02-25 07:56:00